User: anonymous   Login
Location: Brienzwiler
(46.7508°N, 8.1014°E)
Time: 16:59:35
(UTC+00:00)
Language:

Cosmos 1371 Rocket - Orbit

View from above orbital plane
View from above orbital plane
View from above satellite
View from above satellite

Ground track
Ground track

The orbit data is extracted from the following two-line orbital elements,

1 13242U 82051B   20270.82394648 +.00000051 +00000-0 +26514-4 0  9991
2 13242 074.0434 315.5272 0025739 224.5898 135.3184 14.35987701005246
Epoch (UTC): 26 September 2020 19:46:28
Eccentricity: 0.0025739
inclination: 74.0434°
perigee height: 753 km
apogee height: 790 km
right ascension of ascending node: 315.5272°
argument of perigee: 224.5898°
revolutions per day: 14.35987701
mean anomaly at epoch: 135.3184°
orbit number at epoch: 524

The dashed part of the orbit path shows where the satellite is in the earth's shadow,  

DLR